| time (UTC) | temp F | wind direction | speed MPH | gust MPH | rain 1hr in | rain 24hr in | rain mn in | humidity % | barometer mb |
| 20260506114508 | 48 | 76 | 3.0 | 7.0 | 0.00 | 0.00 | 0.00 | 62 | 1008.3 |
| 20260506114009 | 48 | 80 | 3.0 | 9.0 | 0.00 | 0.00 | 0.00 | 63 | 1008.4 |
| 20260506113508 | 49 | 76 | 5.0 | 9.0 | 0.00 | 0.00 | 0.00 | 62 | 1008.5 |
| 20260506113008 | 48 | 93 | 3.0 | 7.0 | 0.00 | 0.00 | 0.00 | 63 | 1008.5 |
| 20260506112009 | 47 | 126 | 4.0 | 9.0 | 0.00 | 0.00 | 0.00 | 66 | 1008.4 |
| 20260506111508 | 46 | 64 | 3.0 | 10.0 | 0.00 | 0.00 | 0.00 | 67 | 1008.4 |
| 20260506111008 | 47 | 85 | 3.0 | 10.0 | 0.00 | 0.00 | 0.00 | 65 | 1008.6 |
| 20260506110508 | 48 | 134 | 3.0 | 8.0 | 0.00 | 0.00 | 0.00 | 65 | 1008.6 |
| 20260506105508 | 48 | 51 | 3.0 | 7.0 | 0.00 | 0.00 | 0.00 | 66 | 1008.6 |
| 20260506105007 | 48 | 81 | 3.0 | 7.0 | 0.00 | 0.00 | 0.00 | 66 | 1008.7 |
| 20260506104008 | 48 | 67 | 3.0 | 7.0 | 0.00 | 0.00 | 0.00 | 66 | 1008.8 |
| 20260506103508 | 48 | 51 | 3.0 | 7.0 | 0.00 | 0.00 | 0.00 | 67 | 1008.8 |
| 20260506103008 | 48 | 78 | 2.0 | 5.0 | 0.00 | 0.00 | 0.00 | 65 | 1008.8 |
| 20260506102508 | 48 | 64 | 2.0 | 7.0 | 0.00 | 0.00 | 0.00 | 67 | 1009.0 |
| 20260506102008 | 48 | 93 | 2.0 | 7.0 | 0.00 | 0.00 | 0.00 | 65 | 1008.8 |
| 20260506101507 | 46 | 97 | 3.0 | 6.0 | 0.00 | 0.00 | 0.00 | 68 | 1008.8 |
| 20260506100508 | 45 | 113 | 2.0 | 5.0 | 0.00 | 0.00 | 0.00 | 69 | 1008.7 |
| 20260506100008 | 45 | 72 | 3.0 | 6.0 | 0.00 | 0.00 | 0.00 | 70 | 1008.9 |
| 20260506095507 | 45 | 99 | 3.0 | 7.0 | 0.00 | 0.00 | 0.00 | 71 | 1008.8 |
| 20260506095008 | 46 | 96 | 3.0 | 5.0 | 0.00 | 0.00 | 0.00 | 70 | 1009.1 |
| 20260506094508 | 46 | 110 | 2.0 | 6.0 | 0.00 | 0.00 | 0.00 | 69 | 1009.0 |
| 20260506094008 | 47 | 133 | 2.0 | 6.0 | 0.00 | 0.00 | 0.00 | 66 | 1009.0 |
| 20260506093008 | 48 | 71 | 0.0 | 1.0 | 0.00 | 0.00 | 0.00 | 57 | 1009.0 |
| 20260506092507 | 47 | 101 | 1.0 | 2.0 | 0.00 | 0.00 | 0.00 | 59 | 1009.2 |
| 20260506092007 | 47 | 46 | 0.0 | 1.0 | 0.00 | 0.00 | 0.00 | 61 | 1009.0 |
| 20260506091507 | 46 | 332 | 1.0 | 2.0 | 0.00 | 0.00 | 0.00 | 61 | 1009.1 |
| 20260506091007 | 47 | 76 | 1.0 | 2.0 | 0.00 | 0.00 | 0.00 | 65 | 1009.0 |
| 20260506090007 | 47 | 93 | 1.0 | 2.0 | 0.00 | 0.00 | 0.00 | 64 | 1009.1 |
| 20260506085507 | 47 | 61 | 0.0 | 1.0 | 0.00 | 0.00 | 0.00 | 68 | 1009.3 |
| 20260506084508 | 45 | 121 | 1.0 | 2.0 | 0.00 | 0.00 | 0.00 | 69 | 1009.6 |
| 20260506084008 | 46 | 147 | 0.0 | 1.0 | 0.00 | 0.00 | 0.00 | 71 | 1009.5 |
| 20260506083507 | 46 | 116 | 0.0 | 2.0 | 0.00 | 0.00 | 0.00 | 71 | 1009.3 |
| 20260506083008 | 46 | 56 | 0.0 | 1.0 | 0.00 | 0.00 | 0.00 | 72 | 1009.5 |
| 20260506082508 | 45 | 297 | 0.0 | 1.0 | 0.00 | 0.00 | 0.00 | 73 | 1009.5 |
| 20260506081508 | 45 | 325 | 0.0 | 2.0 | 0.00 | 0.00 | 0.00 | 72 | 1009.4 |
| 20260506081007 | 45 | 75 | 0.0 | 2.0 | 0.00 | 0.00 | 0.00 | 73 | 1009.3 |
| 20260506080508 | 46 | 138 | 0.0 | 1.0 | 0.00 | 0.00 | 0.00 | 72 | 1009.5 |
| 20260506073507 | 46 | 98 | 0.0 | 2.0 | 0.00 | 0.00 | 0.00 | 76 | 1009.5 |
| 20260506072507 | 45 | 140 | 0.0 | 1.0 | 0.00 | 0.00 | 0.00 | 77 | 1009.6 |
| 20260506072007 | 44 | 50 | 0.0 | 2.0 | 0.00 | 0.00 | 0.00 | 79 | 1009.6 |
| 20260506070507 | 43 | 231 | 0.0 | 1.0 | 0.00 | 0.00 | 0.00 | 80 | 1009.6 |
| 20260506062507 | 41 | 156 | 1.0 | 2.0 | 0.00 | 0.00 | 0.00 | 84 | 1009.6 |
| 20260506062007 | 40 | 157 | 0.0 | 1.0 | 0.00 | 0.00 | 0.00 | 84 | 1009.6 |
| 20260506061507 | 40 | 124 | 0.0 | 2.0 | 0.00 | 0.00 | 0.00 | 84 | 1009.7 |
| 20260506061007 | 40 | 148 | 0.0 | 1.0 | 0.00 | 0.00 | 0.00 | 85 | 1009.6 |
| 20260506051007 | 34 | 121 | 0.0 | 0.0 | 0.00 | 0.00 | 0.00 | 94 | 1010.0 |
| 20260506050507 | 34 | 85 | 0.0 | 0.0 | 0.00 | 0.00 | 0.00 | 94 | 1010.2 |
| 20260506045007 | 33 | 126 | 0.0 | 0.0 | 0.00 | 0.00 | 0.00 | 94 | 1010.1 |
| 20260506044507 | 33 | 138 | 0.0 | 0.0 | 0.00 | 0.00 | 0.00 | 94 | 1010.3 |
| 20260506043508 | 33 | 126 | 0.0 | 0.0 | 0.00 | 0.00 | 0.00 | 94 | 1010.3 |
| 20260506043006 | 33 | 129 | 0.0 | 1.0 | 0.00 | 0.00 | 0.00 | 94 | 1010.3 |
| 20260506042506 | 33 | 145 | 0.0 | 1.0 | 0.00 | 0.00 | 0.00 | 94 | 1010.4 |
| 20260506042006 | 32 | 124 | 0.0 | 1.0 | 0.00 | 0.00 | 0.00 | 94 | 1010.3 |
| 20260506041507 | 33 | 116 | 0.0 | 1.0 | 0.00 | 0.00 | 0.00 | 94 | 1010.4 |
| 20260506041006 | 33 | 68 | 0.0 | 1.0 | 0.00 | 0.00 | 0.00 | 94 | 1010.4 |
| 20260506040506 | 33 | 86 | 0.0 | 1.0 | 0.00 | 0.00 | 0.00 | 94 | 1010.4 |
| 20260506040006 | 33 | 71 | 0.0 | 1.0 | 0.00 | 0.00 | 0.00 | 94 | 1010.5 |
| 20260506035506 | 32 | 129 | 0.0 | 0.0 | 0.00 | 0.00 | 0.00 | 94 | 1010.6 |
| 20260506034506 | 32 | 108 | 0.0 | 0.0 | 0.00 | 0.00 | 0.00 | 94 | 1010.5 |
| 20260506033506 | 33 | 128 | 0.0 | 0.0 | 0.00 | 0.00 | 0.00 | 94 | 1010.6 |
| 20260506033006 | 33 | 128 | 0.0 | 0.0 | 0.00 | 0.01 | 0.00 | 94 | 1010.7 |
| 20260506032506 | 32 | 79 | 0.0 | 0.0 | 0.00 | 0.01 | 0.00 | 94 | 1010.8 |
| 20260506031506 | 32 | 160 | 0.0 | 1.0 | 0.00 | 0.01 | 0.00 | 94 | 1010.8 |
| 20260506030506 | 32 | 162 | 0.0 | 1.0 | 0.00 | 0.01 | 0.00 | 94 | 1010.9 |
| 20260506030006 | 32 | 118 | 0.0 | 0.0 | 0.00 | 0.01 | 0.00 | 94 | 1010.9 |
| 20260506025006 | 32 | 131 | 0.0 | 0.0 | 0.00 | 0.01 | 0.00 | 94 | 1010.8 |
| 20260506024507 | 32 | 146 | 0.0 | 0.0 | 0.00 | 0.01 | 0.00 | 94 | 1010.7 |
| 20260506024007 | 33 | 143 | 0.0 | 0.0 | 0.00 | 0.01 | 0.00 | 94 | 1011.0 |
| 20260506023506 | 32 | 122 | 0.0 | 0.0 | 0.00 | 0.01 | 0.00 | 94 | 1010.9 |
| 20260506023006 | 32 | 86 | 0.0 | 0.0 | 0.00 | 0.01 | 0.00 | 93 | 1010.8 |
| 20260506022506 | 32 | 85 | 0.0 | 0.0 | 0.00 | 0.01 | 0.00 | 93 | 1010.9 |
| 20260506022006 | 32 | 85 | 0.0 | 0.0 | 0.00 | 0.01 | 0.00 | 93 | 1011.0 |
| 20260506021506 | 32 | 81 | 0.0 | 0.0 | 0.00 | 0.01 | 0.00 | 93 | 1011.0 |
| 20260506021006 | 32 | 208 | 0.0 | 0.0 | 0.00 | 0.01 | 0.00 | 93 | 1011.1 |
| 20260506015506 | 33 | 156 | 0.0 | 0.0 | 0.00 | 0.01 | 0.00 | 92 | 1011.1 |
| 20260506015006 | 32 | 124 | 0.0 | 0.0 | 0.00 | 0.01 | 0.00 | 92 | 1011.3 |
| 20260506014506 | 33 | 124 | 0.0 | 0.0 | 0.00 | 0.01 | 0.00 | 92 | 1011.1 |
| 20260506014006 | 33 | 123 | 0.0 | 0.0 | 0.00 | 0.01 | 0.00 | 92 | 1011.3 |
| 20260506012506 | 32 | 159 | 0.0 | 0.0 | 0.00 | 0.01 | 0.00 | 91 | 1011.2 |
| 20260506012006 | 32 | 158 | 0.0 | 0.0 | 0.00 | 0.01 | 0.00 | 91 | 1011.4 |
| 20260506011506 | 32 | 158 | 0.0 | 0.0 | 0.00 | 0.01 | 0.00 | 90 | 1011.2 |
| 20260506011006 | 33 | 158 | 0.0 | 0.0 | 0.00 | 0.01 | 0.00 | 90 | 1011.3 |
| 20260506010506 | 33 | 158 | 0.0 | 0.0 | 0.00 | 0.01 | 0.00 | 90 | 1011.2 |
| 20260506010005 | 33 | 158 | 0.0 | 1.0 | 0.00 | 0.01 | 0.00 | 90 | 1011.3 |
| 20260506004006 | 34 | 165 | 0.0 | 0.0 | 0.00 | 0.01 | 0.00 | 90 | 1011.5 |
| 20260506003505 | 34 | 203 | 0.0 | 0.0 | 0.00 | 0.01 | 0.00 | 89 | 1011.4 |
| 20260506003006 | 34 | 274 | 0.0 | 0.0 | 0.00 | 0.01 | 0.00 | 89 | 1011.4 |
| 20260506002505 | 34 | 292 | 0.0 | 0.0 | 0.00 | 0.01 | 0.00 | 89 | 1011.5 |
| 20260506002006 | 35 | 292 | 0.0 | 0.0 | 0.00 | 0.01 | 0.00 | 89 | 1011.6 |
| 20260506001505 | 35 | 300 | 0.0 | 0.0 | 0.00 | 0.01 | 0.00 | 88 | 1011.5 |
| 20260506001005 | 35 | 300 | 0.0 | 0.0 | 0.00 | 0.01 | 0.00 | 88 | 1011.5 |
| 20260506000506 | 35 | 308 | 0.0 | 0.0 | 0.00 | 0.01 | 0.00 | 88 | 1011.7 |
| 20260506000005 | 35 | 128 | 0.0 | 1.0 | 0.00 | 0.01 | 0.00 | 88 | 1011.6 |
| 20260505235505 | 35 | 114 | 0.0 | 0.0 | 0.00 | 0.01 | 0.00 | 88 | 1011.6 |
| 20260505234006 | 35 | 99 | 0.0 | 0.0 | 0.00 | 0.01 | 0.00 | 88 | 1011.7 |
| 20260505233506 | 35 | 98 | 0.0 | 0.0 | 0.00 | 0.01 | 0.00 | 87 | 1011.9 |
| 20260505233006 | 35 | 98 | 0.0 | 0.0 | 0.00 | 0.01 | 0.00 | 87 | 1011.7 |
| 20260505232505 | 35 | 98 | 0.0 | 0.0 | 0.00 | 0.01 | 0.00 | 87 | 1011.7 |
| 20260505232006 | 35 | 153 | 0.0 | 1.0 | 0.00 | 0.01 | 0.00 | 87 | 1011.8 |
| 20260505231505 | 35 | 136 | 0.0 | 0.0 | 0.00 | 0.01 | 0.00 | 87 | 1011.8 |
| 20260505231005 | 35 | 102 | 0.0 | 0.0 | 0.00 | 0.01 | 0.00 | 87 | 1011.9 |
| 20260505230505 | 35 | 84 | 0.0 | 0.0 | 0.00 | 0.01 | 0.00 | 87 | 1011.9 |
| 20260505230006 | 35 | 83 | 0.0 | 0.0 | 0.00 | 0.01 | 0.00 | 86 | 1011.9 |
| 20260505225505 | 35 | 82 | 0.0 | 0.0 | 0.00 | 0.01 | 0.01 | 86 | 1011.9 |
| 20260505225005 | 35 | 111 | 0.0 | 0.0 | 0.00 | 0.01 | 0.01 | 86 | 1012.2 |
| 20260505224505 | 35 | 125 | 0.0 | 0.0 | 0.00 | 0.01 | 0.01 | 85 | 1012.1 |
| 20260505224005 | 35 | 125 | 0.0 | 0.0 | 0.00 | 0.01 | 0.01 | 85 | 1012.1 |
| 20260505223505 | 35 | 127 | 0.0 | 0.0 | 0.00 | 0.01 | 0.01 | 85 | 1012.1 |
| 20260505222505 | 35 | 148 | 0.0 | 2.0 | 0.00 | 0.01 | 0.01 | 83 | 1012.3 |
| 20260505221505 | 36 | 165 | 0.0 | 0.0 | 0.00 | 0.01 | 0.01 | 82 | 1012.3 |
| 20260505221005 | 36 | 151 | 0.0 | 1.0 | 0.00 | 0.01 | 0.01 | 82 | 1012.3 |
| 20260505220505 | 36 | 29 | 0.0 | 2.0 | 0.00 | 0.01 | 0.01 | 82 | 1012.2 |
| 20260505220005 | 36 | 232 | 1.0 | 2.0 | 0.00 | 0.01 | 0.01 | 82 | 1012.3 |
| 20260505215005 | 36 | 305 | 0.0 | 1.0 | 0.00 | 0.01 | 0.01 | 83 | 1012.2 |
| 20260505214505 | 36 | 169 | 0.0 | 1.0 | 0.00 | 0.01 | 0.01 | 83 | 1012.3 |
| 20260505213505 | 37 | 317 | 0.0 | 2.0 | 0.00 | 0.01 | 0.01 | 83 | 1012.5 |
| 20260505213005 | 37 | 332 | 1.0 | 2.0 | 0.00 | 0.01 | 0.01 | 83 | 1012.5 |
| 20260505212005 | 37 | 355 | 1.0 | 2.0 | 0.00 | 0.01 | 0.01 | 83 | 1012.4 |
| 20260505211505 | 38 | 316 | 0.0 | 1.0 | 0.00 | 0.01 | 0.01 | 84 | 1012.5 |
| 20260505210505 | 38 | 331 | 0.0 | 2.0 | 0.00 | 0.01 | 0.01 | 85 | 1012.4 |
| 20260505210005 | 39 | 320 | 0.0 | 1.0 | 0.00 | 0.01 | 0.01 | 84 | 1012.4 |
| 20260505205005 | 39 | 277 | 0.0 | 2.0 | 0.00 | 0.01 | 0.01 | 84 | 1012.5 |
| 20260505204505 | 39 | 323 | 0.0 | 2.0 | 0.00 | 0.01 | 0.01 | 84 | 1012.5 |
| 20260505204004 | 39 | 284 | 0.0 | 1.0 | 0.00 | 0.01 | 0.01 | 84 | 1012.8 |
| 20260505203004 | 39 | 207 | 0.0 | 1.0 | 0.00 | 0.01 | 0.01 | 84 | 1012.7 |
| 20260505202504 | 40 | 37 | 0.0 | 1.0 | 0.00 | 0.01 | 0.01 | 84 | 1012.8 |
| 20260505202004 | 40 | 278 | 0.0 | 1.0 | 0.00 | 0.01 | 0.01 | 83 | 1012.7 |
| 20260505201505 | 40 | 225 | 1.0 | 2.0 | 0.00 | 0.01 | 0.01 | 84 | 1012.7 |
| 20260505201004 | 40 | 262 | 1.0 | 2.0 | 0.00 | 0.01 | 0.01 | 83 | 1012.6 |
| 20260505200505 | 40 | 311 | 1.0 | 2.0 | 0.00 | 0.01 | 0.01 | 83 | 1012.6 |
| 20260505200005 | 40 | 297 | 1.0 | 3.0 | 0.00 | 0.01 | 0.01 | 83 | 1012.5 |
| 20260505195004 | 40 | 245 | 1.0 | 3.0 | 0.00 | 0.01 | 0.01 | 83 | 1012.4 |
| 20260505194504 | 40 | 297 | 2.0 | 3.0 | 0.00 | 0.01 | 0.01 | 82 | 1012.6 |
| 20260505193504 | 40 | 338 | 1.0 | 5.0 | 0.00 | 0.01 | 0.01 | 81 | 1012.6 |
| 20260505193004 | 41 | 273 | 1.0 | 3.0 | 0.00 | 0.01 | 0.01 | 80 | 1012.6 |
| 20260505192504 | 42 | 232 | 2.0 | 5.0 | 0.00 | 0.01 | 0.01 | 78 | 1012.6 |
| 20260505192004 | 43 | 284 | 3.0 | 5.0 | 0.00 | 0.01 | 0.01 | 75 | 1012.6 |
| 20260505190505 | 43 | 318 | 1.0 | 2.0 | 0.00 | 0.01 | 0.01 | 75 | 1012.7 |
| 20260505185504 | 43 | 313 | 1.0 | 2.0 | 0.00 | 0.01 | 0.01 | 75 | 1012.6 |
| 20260505185005 | 43 | 252 | 0.0 | 3.0 | 0.00 | 0.01 | 0.01 | 75 | 1012.7 |
| 20260505184504 | 42 | 311 | 1.0 | 2.0 | 0.00 | 0.01 | 0.01 | 75 | 1012.9 |
| 20260505182004 | 45 | 295 | 2.0 | 6.0 | 0.00 | 0.01 | 0.01 | 68 | 1012.5 |
| 20260505181004 | 45 | 289 | 1.0 | 7.0 | 0.00 | 0.01 | 0.01 | 67 | 1012.5 |
| 20260505180504 | 45 | 282 | 3.0 | 8.0 | 0.00 | 0.01 | 0.01 | 67 | 1012.6 |
| 20260505180004 | 46 | 296 | 2.0 | 5.0 | 0.00 | 0.01 | 0.01 | 65 | 1012.6 |
| 20260505175504 | 46 | 299 | 1.0 | 5.0 | 0.00 | 0.01 | 0.01 | 63 | 1012.7 |
| 20260505175004 | 47 | 307 | 2.0 | 7.0 | 0.00 | 0.01 | 0.01 | 59 | 1012.6 |
| 20260505174504 | 46 | 275 | 2.0 | 7.0 | 0.00 | 0.01 | 0.01 | 58 | 1012.5 |
| 20260505174004 | 47 | 17 | 2.0 | 6.0 | 0.00 | 0.01 | 0.01 | 56 | 1012.6 |
| 20260505173504 | 47 | 289 | 2.0 | 7.0 | 0.00 | 0.01 | 0.01 | 54 | 1012.6 |
| 20260505173004 | 47 | 93 | 2.0 | 5.0 | 0.00 | 0.01 | 0.01 | 55 | 1012.7 |
| 20260505172004 | 47 | 307 | 1.0 | 6.0 | 0.00 | 0.01 | 0.01 | 54 | 1012.5 |
| 20260505171504 | 47 | 311 | 3.0 | 8.0 | 0.00 | 0.01 | 0.01 | 53 | 1012.6 |
| 20260505171005 | 47 | 307 | 2.0 | 6.0 | 0.00 | 0.01 | 0.01 | 55 | 1012.6 |
| 20260505170504 | 48 | 296 | 2.0 | 6.0 | 0.00 | 0.01 | 0.01 | 57 | 1012.7 |
| 20260505170004 | 48 | 233 | 1.0 | 8.0 | 0.00 | 0.01 | 0.01 | 55 | 1012.6 |
| 20260505165503 | 47 | 130 | 2.0 | 8.0 | 0.00 | 0.01 | 0.01 | 55 | 1012.6 |
| 20260505165004 | 48 | 289 | 3.0 | 7.0 | 0.00 | 0.01 | 0.01 | 53 | 1012.5 |
| 20260505164009 | 49 | 315 | 2.0 | 6.0 | 0.00 | 0.01 | 0.01 | 52 | 1012.7 |
| 20260505163509 | 49 | 299 | 1.0 | 6.0 | 0.00 | 0.01 | 0.01 | 54 | 1012.6 |
| 20260505163010 | 49 | 301 | 2.0 | 7.0 | 0.00 | 0.01 | 0.01 | 53 | 1012.8 |
| 20260505162509 | 49 | 319 | 3.0 | 8.0 | 0.00 | 0.01 | 0.01 | 53 | 1012.7 |
| 20260505162010 | 49 | 280 | 2.0 | 7.0 | 0.00 | 0.01 | 0.01 | 53 | 1012.5 |
| 20260505161509 | 48 | 305 | 3.0 | 8.0 | 0.00 | 0.01 | 0.01 | 54 | 1012.6 |
| 20260505161010 | 49 | 320 | 3.0 | 10.0 | 0.00 | 0.01 | 0.01 | 54 | 1012.7 |
| 20260505160509 | 48 | 324 | 2.0 | 6.0 | 0.00 | 0.01 | 0.01 | 52 | 1012.7 |
| 20260505153012 | 46 | 324 | 1.0 | 7.0 | 0.00 | 0.01 | 0.01 | 59 | 1012.8 |
| 20260505152512 | 46 | 298 | 2.0 | 6.0 | 0.00 | 0.01 | 0.01 | 59 | 1012.8 |
| 20260505152011 | 46 | 282 | 2.0 | 8.0 | 0.00 | 0.01 | 0.01 | 60 | 1012.8 |
| 20260505151512 | 46 | 93 | 3.0 | 7.0 | 0.00 | 0.01 | 0.01 | 64 | 1012.8 |
| 20260505151010 | 46 | 129 | 3.0 | 9.0 | 0.00 | 0.01 | 0.01 | 62 | 1012.7 |
| 20260505150508 | 46 | 108 | 4.0 | 9.0 | 0.00 | 0.01 | 0.01 | 62 | 1012.9 |
| 20260505140510 | 47 | 105 | 1.0 | 5.0 | 0.00 | 0.01 | 0.01 | 54 | 1012.7 |
| 20260505125009 | 48 | 301 | 2.0 | 7.0 | 0.00 | 0.01 | 0.01 | 52 | 1012.6 |
| 20260505124508 | 48 | 193 | 1.0 | 3.0 | 0.00 | 0.01 | 0.01 | 51 | 1012.5 |
| 20260505124009 | 46 | 312 | 2.0 | 8.0 | 0.00 | 0.01 | 0.01 | 57 | 1012.6 |
| 20260505123509 | 45 | 115 | 2.0 | 8.0 | 0.00 | 0.01 | 0.01 | 61 | 1012.6 |
| 20260505122509 | 47 | 186 | 1.0 | 6.0 | 0.00 | 0.01 | 0.01 | 51 | 1012.8 |
| 20260505121509 | 46 | 281 | 2.0 | 5.0 | 0.00 | 0.01 | 0.01 | 51 | 1012.6 |
| 20260505121009 | 47 | 342 | 1.0 | 6.0 | 0.00 | 0.01 | 0.01 | 50 | 1012.6 |
| 20260505120509 | 47 | 291 | 2.0 | 9.0 | 0.00 | 0.01 | 0.01 | 55 | 1012.6 |
| 20260505120008 | 47 | 11 | 3.0 | 9.0 | 0.00 | 0.01 | 0.01 | 51 | 1012.7 |
| 20260505115508 | 47 | 103 | 2.0 | 9.0 | 0.00 | 0.01 | 0.01 | 52 | 1012.7 |
| 20260505115008 | 47 | 304 | 3.0 | 7.0 | 0.00 | 0.01 | 0.01 | 53 | 1012.7 |